Weather History for KALO - March, 2012

Change the Weather History Date:

Wednesday, March 28, 2012

  Actual Average Record
Temperature  
Mean Temperature 53 °F 41 °F  
Max Temperature 65 °F 52 °F 81 °F (1986)
Min Temperature 40 °F 30 °F 3 °F (1970)
Degree Days  
Heating Degree Days 12 24  
Month to date heating degree days 395 836  
Since 1 July heating degree days 5174 6255  
Cooling Degree Days 0 0  
Month to date cooling degree days 19 0  
Year to date cooling degree days 19 0  
Growing Degree Days 4 (Base 50)    
Moisture  
Dew Point 38 °F    
Average Humidity 57    
Maximum Humidity 76    
Minimum Humidity 37    
Precipitation  
Precipitation 0.00 in 0.08 in 0.85 in (1931)
Month to date precipitation 0.86 1.80  
Year to date precipitation 3.33 3.62  
Snow  
Snow 0.00 in 0.10 in 8.50 in (1931)
Month to date snowfall 1.1 4.2  
Since 1 July snowfall 25.8 33.1  
Snow Depth 0.00 in    
Sea Level Pressure  
Sea Level Pressure 29.98 in    
Wind  
Wind Speed 9 mph (NW)    
Max Wind Speed 23 mph    
Max Gust Speed 29 mph    
Visibility 10 miles    
Events      
T = Trace of Precipitation, MM = Missing Value Source: NWS Daily Summary

Daily Weather History Graph

Daily Weather History Graph

Search for Another Location

Airport or City:

Trip Planner

Search our weather history database for the weather conditions in past years. The results will help you decide how hot, cold, wet, or windy it might be!

Date:

Astronomy

Mar. 28, 2012 Rise Set
Actual Time 6:58 AM CDT 7:31 PM CDT
Civil Twilight 6:29 AM CDT 7:59 PM CDT
Nautical Twilight 5:56 AM CDT 8:33 PM CDT
Astronomical Twilight 5:21 AM CDT 9:08 PM CDT
Moon 10:08 AM CDT (3/28) 12:40 AM CDT (3/28)
Length of Visible Light 13h 30m
Length of Day
12h 33m
Waxing Crescent, 30% of the Moon is Illuminated
Mar 28
Waxing Crescent
Mar 30
First Quarter
Apr 6
Full
Apr 13
Last Quarter
Apr 21
New

Hourly Weather History & Observations

Time (CDT) Temp. Windchill Dew Point Humidity Pressure Visibility Wind Dir Wind Speed Gust Speed Precip Events Conditions
12:54 AM 57.0 °F - 42.1 °F 57% 29.87 in 10.0 mi NW 13.8 mph - N/A   Clear
1:54 AM 53.1 °F - 42.1 °F 66% 29.89 in 10.0 mi NW 9.2 mph - N/A   Clear
2:54 AM 50.0 °F - 41.0 °F 71% 29.89 in 10.0 mi WNW 5.8 mph - N/A   Clear
3:54 AM 46.9 °F - 39.9 °F 77% 29.89 in 10.0 mi WNW 4.6 mph - N/A   Clear
4:54 AM 46.9 °F - 39.9 °F 77% 29.91 in 10.0 mi NW 6.9 mph - N/A   Clear
5:54 AM 46.9 °F - 37.9 °F 71% 29.93 in 10.0 mi NW 10.4 mph - N/A   Clear
6:54 AM 46.0 °F 42.5 °F 37.9 °F 73% 29.95 in 10.0 mi West 6.9 mph - N/A   Clear
7:54 AM 48.9 °F - 37.9 °F 66% 29.97 in 10.0 mi West 9.2 mph - N/A   Clear
8:54 AM 51.1 °F - 37.0 °F 59% 29.99 in 10.0 mi WNW 12.7 mph - N/A   Clear
9:54 AM 53.1 °F - 37.0 °F 55% 30.01 in 10.0 mi NW 18.4 mph 24.2 mph N/A   Clear
10:54 AM 55.0 °F - 37.9 °F 53% 30.02 in 10.0 mi WNW 11.5 mph 19.6 mph N/A   Clear
11:54 AM 59.0 °F - 39.9 °F 49% 30.02 in 10.0 mi NW 15.0 mph 23.0 mph N/A   Clear
12:54 PM 61.0 °F - 37.0 °F 41% 30.01 in 10.0 mi NW 20.7 mph 28.8 mph N/A   Clear
1:54 PM 63.0 °F - 37.9 °F 40% 30.01 in 10.0 mi NW 16.1 mph 23.0 mph N/A   Clear
2:54 PM 64.4 °F - 37.4 °F 37% 29.99 in 10.0 mi NW 17.3 mph 28.8 mph N/A   Clear
3:54 PM 64.0 °F - 37.0 °F 37% 29.99 in 10.0 mi NW 9.2 mph - N/A   Clear
4:54 PM 64.0 °F - 37.0 °F 37% 29.98 in 10.0 mi NNW 11.5 mph 21.9 mph N/A   Clear
5:54 PM 63.0 °F - 37.0 °F 38% 29.98 in 10.0 mi NW 8.1 mph - N/A   Clear
6:54 PM 59.0 °F - 37.9 °F 46% 30.00 in 10.0 mi NNW 10.4 mph - N/A   Clear
7:54 PM 51.1 °F - 37.9 °F 61% 30.01 in 10.0 mi North 5.8 mph - N/A   Clear
8:54 PM 50.0 °F - 37.9 °F 63% 30.02 in 10.0 mi Calm Calm - N/A   Clear
9:54 PM 44.1 °F 40.8 °F 37.0 °F 76% 30.04 in 10.0 mi NNE 5.8 mph - N/A   Clear
10:54 PM 45.0 °F 43.5 °F 37.9 °F 76% 30.03 in 10.0 mi NE 3.5 mph - N/A   Clear
11:54 PM 45.0 °F - 37.9 °F 76% 30.03 in 10.0 mi Calm Calm - N/A   Clear